sat.trackr.live / text

‹ back to catalog

STARLINK-30701

NORAD 57950 · 2023-148R

PAYLOAD ACTIVE UNKNOWN

§ Identity

Operator
Country
US
Launch date
2023-09-25
Launch site
AFWTR
Launch vehicle
Mass (kg)
RCS (m²)

Purposes: comms

External: N2YO · Heavens-Above · Gunter

§ Orbital elements

Epoch: 2026-05-25T01:20:55.019040Z

Period
94.11 min
Inclination
53.1614°
Eccentricity
0.0001130
Mean motion
15.30194744 rev/d
Perigee alt
474.5 km
Apogee alt
476.0 km
Semi-major
6,853.4 km
B*
5.1354e-5
RAAN
29.6002°
Arg perigee
117.0106°
Mean anomaly
243.1010°
Rev number
15,011

§ Raw data

STARLINK-307011 57950U 23148R   26145.05619235  .00001162  00000+0  51354-4 0  99942 57950  53.1614  29.6002 0001130 117.0106 243.1010 15.30194744150115

JSON: /api/v1/satellites/57950 · /tle

For live sub-satellite position, see the globe view (requires WebGL).

§ Visibility from observer

Set your observer location to see the next 7 days of passes ≥ 10°. The values pass through the URL so the page stays shareable.

No JS? Fill the form by hand. The geolocation button needs JavaScript.